Location: Beaver Brook Station
(42.3793°N, 71.2203°W)
Time: 05:46:43
(UTC+00:00)

X-37B - Pass Details

Date: 22 January 2021
Orbit: 383 x 391 km, 45.0° (Epoch: 27 February)

Event Time Altitude Azimuth Distance (km) Brightness Sun altitude
Rises 23:19:50 0° 263° (W) 2,270 6.2 -17.1°
Reaches altitude 10° 23:21:55 10° 267° (W) 1,418 4.7 -17.5°
Maximum altitude 23:25:05 61° 349° (N) 447 0.8 -18.1°
Enters shadow 23:25:26 56° 24° (NNE) 471 0.7 -18.2°
